KCIKMI Weather Reports


time (UTC)temp
C
wind
direction
speed
KPH
gust
KPH
rain 1hr
cm
rain 24hr
cm
rain mn
cm
humidity
%
barometer
mb
20260503025528 10 219 0.0 0.0 0.00 0.03 0.03 91 1008.4
20260503025031 10 219 0.0 0.0 0.00 0.03 0.03 91 1008.5
20260503024527 10 219 0.0 0.0 0.00 0.03 0.03 91 1008.5
20260503024027 10 219 0.0 0.0 0.00 0.03 0.03 90 1008.5
20260503023527 10 219 0.0 0.0 0.00 0.03 0.03 90 1008.5
20260503023027 10 219 0.0 0.0 0.00 0.03 0.03 90 1008.5
20260503022526 10 219 0.0 0.0 0.00 0.03 0.03 90 1008.6
20260503022026 10 219 0.0 0.0 0.00 0.03 0.03 90 1008.7
20260503021531 10 219 0.0 0.0 0.00 0.03 0.03 90 1008.7
20260503021026 10 219 0.0 0.0 0.00 0.03 0.03 90 1008.7
20260503020528 10 219 0.0 0.0 0.00 0.03 0.03 90 1008.6
20260503020026 10 219 0.0 0.0 0.00 0.03 0.03 90 1008.6
20260503015525 10 219 0.0 0.0 0.00 0.03 0.03 90 1008.7
20260503015025 10 219 0.0 0.0 0.00 0.03 0.03 90 1008.7
20260503014525 10 219 0.0 0.0 0.00 0.03 0.03 89 1008.7
20260503014025 10 219 0.0 0.0 0.00 0.03 0.03 89 1008.8
20260503013525 10 219 0.0 0.0 0.00 0.03 0.03 89 1008.8
20260503013024 10 219 0.0 0.0 0.00 0.03 0.03 89 1008.8
20260503012524 10 219 0.0 0.0 0.00 0.03 0.03 89 1008.9
20260503012024 10 219 0.0 0.0 0.00 0.03 0.03 89 1008.9
20260503011522 10 219 0.0 0.0 0.00 0.03 0.03 90 1008.9
20260503011021 10 219 0.0 0.0 0.00 0.03 0.03 89 1008.9
20260503010522 10 219 0.0 0.0 0.00 0.03 0.03 89 1008.8
20260503010020 10 219 0.0 0.0 0.00 0.03 0.03 89 1008.8
20260503005519 10 219 0.0 0.0 0.00 0.03 0.03 89 1008.8
20260503005019 10 219 0.0 0.0 0.00 0.03 0.03 89 1008.7
20260503004516 10 219 0.0 0.0 0.00 0.03 0.03 90 1008.7
20260503004020 10 219 0.0 0.0 0.00 0.03 0.03 90 1008.7
20260503003513 10 219 0.0 0.0 0.00 0.03 0.03 90 1008.7
20260503003012 10 219 0.0 0.0 0.00 0.03 0.03 90 1008.6
20260503002511 10 219 0.0 0.0 0.00 0.03 0.03 90 1008.7
20260503002011 10 219 0.0 0.0 0.00 0.03 0.03 90 1008.7
20260503001511 10 219 0.0 0.0 0.00 0.03 0.03 89 1008.7
20260503001011 10 218 0.0 0.0 0.00 0.03 0.03 90 1008.6
20260503000510 10 218 0.0 0.0 0.00 0.03 0.03 90 1008.5
20260503000010 10 219 0.0 0.0 0.00 0.03 0.03 90 1008.6
20260502235510 10 219 0.0 0.0 0.00 0.03 0.03 90 1008.7
20260502235010 10 219 0.0 0.0 0.00 0.03 0.03 89 1008.7
20260502234509 10 219 0.0 0.0 0.00 0.03 0.03 89 1008.7
20260502234009 10 219 0.0 0.0 0.00 0.03 0.03 89 1008.6
20260502233508 10 218 0.0 0.0 0.00 0.03 0.03 89 1008.7
20260502233010 10 218 0.0 0.0 0.00 0.03 0.03 89 1008.7
20260502232509 10 218 0.0 0.0 0.00 0.03 0.03 89 1008.8
20260502232012 10 218 0.0 0.0 0.00 0.03 0.03 89 1008.8
20260502231515 10 218 0.0 0.0 0.00 0.03 0.03 88 1008.8
20260502231010 10 218 0.0 0.0 0.00 0.03 0.03 88 1008.7
20260502230508 10 218 0.0 0.0 0.00 0.03 0.03 88 1008.8
20260502230009 10 218 0.0 0.0 0.00 0.03 0.03 88 1008.8
20260502225507 10 218 0.0 0.0 0.00 0.03 0.03 88 1008.9
20260502225007 10 218 0.0 0.0 0.00 0.03 0.03 87 1008.8
20260502224506 10 219 0.0 0.0 0.00 0.03 0.03 87 1008.8
20260502224006 10 219 0.0 0.0 0.00 0.03 0.03 87 1008.8
20260502223508 10 219 0.0 0.0 0.00 0.03 0.03 87 1008.7
20260502223007 10 219 0.0 0.0 0.00 0.03 0.03 87 1008.8
20260502222507 10 218 0.0 0.0 0.00 0.03 0.03 87 1008.7
20260502222006 10 217 0.0 0.0 0.00 0.03 0.03 87 1008.7
20260502221506 10 217 0.0 0.0 0.00 0.03 0.03 87 1008.7
20260502221006 11 217 0.0 0.0 0.00 0.03 0.03 86 1008.7
20260502220506 10 219 0.0 1.6 0.00 0.03 0.03 86 1008.6
20260502220009 11 219 0.0 1.6 0.00 0.03 0.03 86 1008.8
20260502215506 11 176 0.0 1.6 0.00 0.03 0.03 86 1008.7
20260502215005 11 208 0.0 0.0 0.00 0.03 0.03 86 1008.8
20260502214504 11 208 0.0 3.2 0.00 0.03 0.03 86 1008.7
20260502214005 11 208 0.0 3.2 0.00 0.03 0.03 86 1008.8
20260502213504 11 230 0.0 0.0 0.00 0.03 0.03 86 1008.6
20260502213004 11 196 0.0 3.2 0.00 0.03 0.03 86 1008.7
20260502212504 11 196 0.0 3.2 0.00 0.03 0.03 86 1008.6
20260502212004 11 189 0.0 1.6 0.00 0.03 0.03 86 1008.6
20260502211507 11 190 0.0 3.2 0.00 0.03 0.03 86 1008.4
20260502211003 11 204 0.0 3.2 0.00 0.03 0.03 86 1008.4
20260502210501 11 207 0.0 0.0 0.00 0.03 0.03 86 1008.5
20260502210001 11 196 0.0 4.8 0.00 0.03 0.03 86 1008.7
20260502205500 11 230 0.0 4.8 0.00 0.03 0.03 86 1008.7
20260502205100 11 191 0.0 4.8 0.00 0.03 0.03 86 1008.7
20260502204601 11 209 0.0 3.2 0.00 0.03 0.03 86 1008.8
20260502204059 11 216 0.0 3.2 0.00 0.03 0.03 85 1008.7
20260502203558 11 199 0.0 1.6 0.00 0.03 0.03 86 1008.8
20260502203058 11 192 0.0 3.2 0.00 0.03 0.03 86 1008.8
20260502202558 11 195 0.0 3.2 0.00 0.03 0.03 86 1008.8
20260502202059 11 199 0.0 1.6 0.00 0.03 0.03 85 1008.8
20260502201604 11 235 0.0 1.6 0.00 0.03 0.03 85 1008.9
20260502201057 11 209 0.0 4.8 0.00 0.03 0.03 86 1008.9
20260502200556 11 200 0.0 4.8 0.00 0.03 0.03 85 1009.0
20260502200105 11 198 0.0 3.2 0.00 0.03 0.03 85 1009.1
20260502195555 11 201 0.0 4.8 0.00 0.03 0.03 85 1009.1
20260502195101 11 239 0.0 4.8 0.00 0.03 0.03 85 1009.1
20260502194610 11 221 0.0 4.8 0.00 0.03 0.03 85 1009.2
20260502194053 11 216 0.0 4.8 0.03 0.03 0.03 85 1009.3
20260502193553 11 211 0.0 4.8 0.03 0.03 0.03 85 1009.2
20260502193059 11 206 0.0 6.4 0.03 0.03 0.03 85 1009.2
20260502192553 11 196 0.0 6.4 0.03 0.03 0.03 86 1009.3
20260502192051 11 195 0.0 4.8 0.03 0.03 0.03 85 1009.4
20260502191554 11 211 0.0 3.2 0.03 0.03 0.03 86 1009.6
20260502191054 11 215 0.0 6.4 0.03 0.03 0.03 85 1009.6
20260502190549 11 202 0.0 6.4 0.03 0.03 0.03 85 1009.6
20260502185548 11 208 0.0 1.6 0.03 0.03 0.03 85 1009.8
20260502185049 11 197 0.0 4.8 0.03 0.03 0.03 84 1009.8
20260502184556 11 166 0.0 6.4 0.03 0.03 0.03 83 1009.9
20260502184047 11 216 1.6 6.4 0.00 0.00 0.00 82 1009.9
20260502183546 11 169 0.0 8.0 0.00 0.00 0.00 81 1010.1
20260502183047 11 197 0.0 8.0 0.00 0.00 0.00 80 1009.9
20260502182548 12 227 0.0 6.4 0.00 0.00 0.00 79 1009.9
20260502182047 12 201 1.6 6.4 0.00 0.00 0.00 79 1009.7
20260502181546 11 197 0.0 4.8 0.00 0.00 0.00 81 1009.8
20260502181045 11 204 0.0 4.8 0.00 0.00 0.00 81 1009.9
20260502180545 11 200 0.0 4.8 0.00 0.00 0.00 81 1010.0
20260502180112 11 180 0.0 4.8 0.00 0.00 0.00 81 1010.0
20260502164042 11 225 0.0 1.6 0.00 0.00 0.00 80 1010.2
20260502163542 12 166 0.0 3.2 0.00 0.00 0.00 79 1010.2
20260502163042 12 214 0.0 4.8 0.00 0.00 0.00 79 1010.2
20260502162542 12 242 0.0 4.8 0.00 0.00 0.00 79 1010.1
20260502162042 12 195 0.0 4.8 0.00 0.00 0.00 78 1010.3
20260502161541 12 205 0.0 4.8 0.00 0.00 0.00 79 1010.2
20260502161042 12 191 0.0 6.4 0.00 0.00 0.00 80 1010.2
20260502160541 12 201 1.6 6.4 0.00 0.00 0.00 80 1010.2
20260502152042 13 214 0.0 3.2 0.00 0.00 0.00 76 1010.5
20260502151546 13 195 0.0 4.8 0.00 0.00 0.00 75 1010.6
20260502151039 13 202 0.0 4.8 0.00 0.00 0.00 74 1010.5
20260502150539 13 185 0.0 0.0 0.00 0.00 0.00 74 1010.9
20260502130525 11 17 0.0 4.8 0.00 0.00 0.00 79 1011.3
20260502123522 11 197 0.0 1.6 0.00 0.00 0.00 81 1011.1
20260502123022 10 197 0.0 3.2 0.00 0.00 0.00 80 1011.2
20260502122521 10 199 0.0 3.2 0.00 0.00 0.00 81 1011.3
20260502122021 10 190 0.0 3.2 0.00 0.00 0.00 81 1011.2
20260502121523 10 191 0.0 4.8 0.00 0.00 0.00 81 1011.0
20260502121020 10 172 0.0 4.8 0.00 0.00 0.00 81 1010.9
20260502120519 10 207 0.0 3.2 0.00 0.00 0.00 81 1010.9
20260502115520 10 189 0.0 6.4 0.00 0.00 0.00 81 1010.9
20260502115019 10 183 1.6 4.8 0.00 0.00 0.00 81 1010.9
20260502114517 10 202 0.0 4.8 0.00 0.00 0.00 81 1011.0
20260502114016 10 199 0.0 4.8 0.00 0.00 0.00 80 1010.9
20260502113516 10 185 0.0 3.2 0.00 0.00 0.00 81 1010.8
20260502113018 10 208 0.0 4.8 0.00 0.00 0.00 81 1010.8
20260502112515 10 202 0.0 4.8 0.00 0.00 0.00 81 1010.7
20260502112014 10 196 0.0 3.2 0.00 0.00 0.00 81 1010.7
20260502111513 10 197 0.0 3.2 0.00 0.00 0.00 81 1010.6
20260502111013 10 202 0.0 3.2 0.00 0.00 0.00 81 1010.6
20260502110513 9 195 0.0 3.2 0.00 0.00 0.00 81 1010.6
20260502110013 9 190 0.0 3.2 0.00 0.00 0.00 81 1010.6
20260502105512 9 196 0.0 3.2 0.00 0.00 0.00 80 1010.6
20260502105011 9 196 0.0 3.2 0.00 0.00 0.00 80 1010.7
20260502104510 9 202 0.0 0.0 0.00 0.00 0.00 80 1010.5
20260502104010 9 197 0.0 0.0 0.00 0.00 0.00 80 1010.5
20260502103510 9 199 0.0 0.0 0.00 0.00 0.00 80 1010.4
20260502103010 9 199 0.0 0.0 0.00 0.00 0.00 80 1010.4
20260502102510 9 195 0.0 0.0 0.00 0.00 0.00 80 1010.3
20260502102010 9 193 0.0 0.0 0.00 0.00 0.00 80 1010.2
20260502101511 9 193 0.0 0.0 0.00 0.00 0.00 79 1010.3
20260502101009 9 193 0.0 0.0 0.00 0.00 0.00 79 1010.2
20260502100509 9 193 0.0 0.0 0.00 0.00 0.00 79 1010.2
20260502091506 9 191 0.0 0.0 0.00 0.00 0.00 77 1010.1
20260502091006 9 192 0.0 0.0 0.00 0.00 0.00 77 1010.1
20260502090505 9 189 0.0 0.0 0.00 0.00 0.00 78 1010.0
20260502071057 10 195 0.0 4.8 0.00 0.00 0.00 73 1009.9
20260502070556 10 188 0.0 3.2 0.00 0.00 0.00 73 1009.9
20260502070055 10 184 0.0 0.0 0.00 0.00 0.00 73 1010.0
20260502065554 10 184 0.0 0.0 0.00 0.00 0.00 72 1010.0
20260502065055 10 184 0.0 0.0 0.00 0.00 0.00 71 1009.9
20260502064552 10 184 0.0 1.6 0.00 0.00 0.00 71 1010.0
20260502064051 10 184 0.0 1.6 0.00 0.00 0.00 70 1010.0
20260502063550 11 183 0.0 0.0 0.00 0.00 0.00 70 1010.1
20260502063051 11 183 0.0 1.6 0.00 0.00 0.00 69 1010.1
20260502062549 11 183 0.0 1.6 0.00 0.00 0.00 68 1010.2
20260502062050 11 178 0.0 4.8 0.00 0.00 0.00 68 1010.1
20260502061549 11 178 0.0 4.8 0.00 0.00 0.00 68 1010.2
20260502061048 11 190 0.0 3.2 0.00 0.00 0.00 69 1010.0
20260502060647 11 191 0.0 3.2 0.00 0.00 0.00 68 1010.1
20260502060047 11 192 0.0 3.2 0.00 0.00 0.00 68 1010.1
20260502055547 11 189 0.0 3.2 0.00 0.00 0.00 67 1010.2
20260502055046 11 191 0.0 6.4 0.00 0.00 0.00 67 1010.2
20260502054547 11 192 0.0 6.4 0.00 0.00 0.00 66 1010.2
20260502054046 11 195 1.6 6.4 0.00 0.00 0.00 66 1010.3
20260502053544 11 196 1.6 4.8 0.00 0.00 0.00 67 1010.4
20260502053052 11 190 0.0 3.2 0.00 0.00 0.00 67 1010.4
20260502052544 11 188 0.0 4.8 0.00 0.00 0.00 66 1010.3
20260502052043 11 193 0.0 4.8 0.00 0.00 0.00 67 1010.3
20260502051555 11 192 0.0 1.6 0.00 0.00 0.00 67 1010.3
20260502051042 10 184 0.0 0.0 0.00 0.00 0.00 67 1010.3
20260502050544 11 171 0.0 1.6 0.00 0.00 0.00 68 1010.2
20260502050054 11 190 0.0 1.6 0.00 0.00 0.00 68 1010.3
20260502045544 11 195 0.0 1.6 0.00 0.00 0.00 69 1010.3
20260502045040 11 177 0.0 6.4 0.00 0.00 0.00 68 1010.4
20260502044541 11 197 0.0 6.4 0.00 0.00 0.00 68 1010.4
20260502044039 11 194 0.0 0.0 0.00 0.00 0.00 68 1010.4
20260502043537 11 194 0.0 4.8 0.00 0.00 0.00 68 1010.4
20260502043038 11 199 0.0 4.8 0.00 0.00 0.00 68 1010.4
20260502042539 11 213 1.6 8.0 0.00 0.00 0.00 67 1010.5
20260502042036 11 189 0.0 8.0 0.00 0.00 0.00 68 1010.4
20260502041538 11 171 0.0 4.8 0.00 0.00 0.00 68 1010.4
20260502041034 11 194 0.0 4.8 0.00 0.00 0.00 68 1010.5
20260502040535 11 190 0.0 4.8 0.00 0.00 0.00 68 1010.5
20260502040033 11 174 1.6 4.8 0.00 0.00 0.00 68 1010.5
20260502035533 11 174 1.6 6.4 0.00 0.00 0.00 68 1010.5
20260502035033 11 191 0.0 6.4 0.00 0.00 0.00 67 1010.5
20260502034536 11 203 0.0 6.4 0.00 0.00 0.00 68 1010.5
20260502034033 11 185 1.6 6.4 0.00 0.00 0.00 67 1010.5
20260502033533 11 175 0.0 6.4 0.00 0.00 0.00 68 1010.5
20260502033036 11 185 0.0 6.4 0.00 0.00 0.00 67 1010.4
20260502032532 11 187 0.0 6.4 0.00 0.00 0.00 67 1010.3
20260502032032 11 197 0.0 4.8 0.00 0.00 0.00 67 1010.5
20260502031532 11 228 0.0 3.2 0.00 0.00 0.00 67 1010.4
20260502031032 11 194 0.0 3.2 0.00 0.00 0.00 67 1010.4
20260502030531 11 172 0.0 3.2 0.00 0.00 0.00 66 1010.4
20260502030030 11 187 0.0 3.2 0.00 0.00 0.00 67 1010.3